Miscellaneous Local Product
Issued by NWS North Platte, NE

Home | Current Version | Previous Version | Text Only | Print | Product List | Glossary On
Versions: 1 2 3 4 5 6 7 8 9 10 11 12 13 14 15 16 17 18 19 20 21 22 23 24 25 26 27 28 29 30 31 32 33 34 35 36 37 38 39 40 41 42 43 44 45 46 47 48 49 50
000
AXUS43 KLBF 231210
MISLBF


WESTERN AND NORTH CENTRAL NEBRASKA HOURLY WEATHER ROUNDUP
NATIONAL WEATHER SERVICE NORTH PLATTE NE
700 AM CDT TUE MAY 23 2017

NOTE: "FAIR" INDICATES FEW OR NO CLOUDS BELOW 12,000 FEET WITH NO
SIGNIFICANT WEATHER AND/OR OBSTRUCTIONS TO VISIBILITY.

NOTE: STATIONS NOT REPORTING VARIABLES SUCH AS SKY/WEATHER OR
PRESSURE ARE PROVIDED BY RAWS AND APRS NETWORKS AND ARE NOT UNDER
NATIONAL WEATHER SERVICE QUALITY CONTROL.

...OBSERVATIONS IN AND NEAR THE EASTERN PANHANDLE OF NEBRASKA...

CITY           SKY/WX    TMP DP  RH WIND       PRES   REMARKS
PINE RIDGE     CLOUDY    42  40  92 W3        30.12R
GORDON         CLOUDY    45  39  80 NW10      30.10R
CHADRON        CLOUDY    44  39  82 NW13      30.14R
ALLIANCE       MOCLDY    36  34  92 W7        30.12R WCI  30
SIDNEY         CLEAR     36  35  96 W8        30.15S WCI  30
CRESCENT LAKE    N/A     40  37  90 NW12        N/A  WCI  33
$$

...OBSERVATIONS IN NORTHERN NEBRASKA AND FAR SOUTHERN SOUTH DAKOTA...

CITY           SKY/WX    TMP DP  RH WIND       PRES   REMARKS
WINNER         CLOUDY    49  42  77 NW13      30.01R
VALENTINE      CLOUDY    49  40  71 N22       30.03R
THEDFORD       CLOUDY    47  44  86 NW12G18   30.03S
AINSWORTH      CLOUDY    49  43  81 N24       30.01R
O`NEILL        CLOUDY    49  44  80 W12       29.95S
ORD            CLOUDY    47  42  83 W10       29.96F
BROKEN BOW     CLOUDY    48  42  80 NW10      30.00S
VALENTINE NWR    N/A     47  42  82 NW13        N/A
HALSEY           N/A     45  42  89 W7          N/A
BUTTE            N/A     47  42  83 N14G22      N/A
CHAMBERS         N/A     49  45  87 W3          N/A
EWING            N/A     47  45  93 SW3         N/A
$$

...OBSERVATIONS IN SOUTHWEST NEBRASKA AND FAR NORTHEAST COLORADO...

CITY           SKY/WX    TMP DP  RH WIND       PRES   REMARKS
WRAY           FAIR      41  37  87 NW10G17   30.14S
IMPERIAL       CLOUDY    45  39  79 NW13      30.10S
OGALLALA       CLOUDY    46  41  83 NW14      30.09F
NORTH PLATTE   CLOUDY    45  43  93 W8        30.06S
MCCOOK         CLEAR     42  40  92 W13       30.07R
LEXINGTON      CLOUDY    45  42  89 NW7       30.03F
STAPLETON        N/A     44  42  91 CALM        N/A
GOTHENBURG       N/A     43  39  86 W5          N/A
CALLAWAY         N/A     42  40  94 NW6         N/A
$$

...OBSERVATIONS IN CENTRAL LINCOLN COUNTY AREA...

CITY           SKY/WX    TMP DP  RH WIND       PRES   REMARKS
N.P. AIRPORT   CLOUDY    45  43  93 W8        30.06S
N.P. DOWNTOWN    N/A     45  42  89 W3          N/A
N.P. SOUTHEAST   N/A     45  42  88 NW3         N/A
N.P. HILLCREST   N/A     44  42  92 W6          N/A
$$

...SOME OBSERVATIONS FROM AROUND THE REGION...

CITY           SKY/WX    TMP DP  RH WIND       PRES   REMARKS
DENVER         CLOUDY    41  35  79 W9        30.21S
LIMON          CLEAR     38  35  89 NW12      30.19R WCI  30
ASPEN          CLOUDY    32  31  96 S5        30.31S WCI  27
LARAMIE        CLOUDY    30  26  85 N5        30.25S WCI  25
CASPER         PTCLDY    37  35  92 W8        30.25R WCI  31
CHEYENNE       CLOUDY    40  33  76 NW9       30.21S WCI  34
SCOTTSBLUFF    CLOUDY    38  35  89 W7        30.16S WCI  33
GRAND ISLAND   CLOUDY    47  44  90 W10       29.99S
OMAHA          PTCLDY    50  43  77 NW10      29.91S
SIOUX FALLS    CLOUDY    48  45  89 NW12      29.89R
PIERRE         CLOUDY    48  39  71 N16       30.01R
RAPID CITY     CLOUDY    48  39  71 N14       30.14R
BISMARCK       CLOUDY    53  37  54 N14G24    30.07R
KANSAS CITY    CLOUDY    54  52  93 NW10      29.88R
HILL CITY      CLEAR     46  43  89 NW12      30.06S
WICHITA        MOCLDY    54  51  90 N13       29.96R
DODGE CITY     MOCLDY    47  44  90 NW15      30.07R
OKLAHOMA CITY  MOCLDY    56  53  90 NW18G26   29.91S
DALLAS         MOCLDY    65  62  90 CALM      29.86R
AMARILLO       CLOUDY    48  43  82 N14       30.13F
$$




USA.gov is the U.S. government's official web portal to all federal, state and local government web resources and services.